#timestamp,LO_Frequency,Hit,StdDev 
1648929615.9,286046995.7,N
1648929635.7,286046995.3,N
1648929655.5,286046997.9,N
1648929675.4,286046997.5,N
1648929695.2,286046999.5,N
1648929715.0,286046999.1,N
1648929715.9,286046999.1,N
1648929735.8,286046998.9,N
1648929755.6,286046999.0,N
1648929775.5,286047001.2,N
1648929795.3,286046996.6,N
1648929815.1,286046997.7,N
1648929835.9,286046996.8,N
1648929855.7,286046997.7,N
1648929875.5,286046995.2,N
1648929895.4,286046995.8,N
1648929915.2,286046996.1,N
1648929935.1,286046996.7,N
1648929936.0,286046996.7,N
1648929955.8,286046997.7,N
1648929975.6,286046997.1,N
1648929995.5,286046997.2,N
1648930015.3,286046996.7,N
1648930035.1,286046996.3,N
1648930055.9,286046995.3,Y
1648930075.7,286047000.3,P
1648930095.6,286046999.9,N
1648930115.4,286047000.0,N
1648930135.2,286047000.0,N
1648930155.1,286047001.7,N
1648930156.0,286047001.7,N
1648930175.8,286047003.3,N
1648930195.6,286047004.1,N
1648930215.5,286047005.8,N
1648930235.3,286047003.2,N
1648930255.2,286047004.4,N
1648930275.9,286047001.3,N
1648930295.7,286047001.6,N
1648930315.6,286047001.5,N
1648930335.4,286047000.5,N
1648930355.2,286047001.1,N
1648930375.1,286047000.2,N
1648930376.0,286047000.2,N
1648930395.8,286047000.3,N
1648930415.7,286047002.8,N
1648930435.5,286047002.3,N
1648930455.3,286047001.9,N
1648930475.2,286047003.7,N
1648930495.0,286047004.1,N
1648930495.9,286047004.1,N
1648930515.7,286047002.0,N
1648930535.6,286047001.8,N
1648930555.4,286047001.3,N
1648930575.3,286047001.9,N
1648930595.1,286047002.2,N
1648930615.8,286047000.1,N
1648930635.7,286046999.9,N
1648930655.5,286047002.4,N
1648930675.4,286047002.0,N
1648930695.2,286047002.7,N
1648930715.0,286046999.8,N
1648930715.9,286046999.8,N
1648930735.8,286046999.7,N
1648930755.6,286047002.7,N
1648930775.4,286047001.5,N
1648930795.3,286047002.8,N
1648930815.1,286047002.2,N
1648930835.9,286047002.3,N
1648930855.7,286047000.6,N
1648930875.5,286047000.1,N
1648930895.4,286047004.3,Y
1648930915.2,286047002.8,P
1648930935.0,286047001.9,P
1648930936.0,286047001.9,P
1648930955.8,286047003.8,Y
1648930975.6,286046998.1,P
1648930995.5,286046998.9,N
1648931015.3,286046996.6,N
1648931035.1,286046999.7,N
1648931055.9,286047007.0,Y
1648931075.7,286047008.3,P
1648931095.6,286047004.5,N
1648931115.4,286047008.0,N
1648931135.2,286047007.8,N
1648931155.1,286047006.4,N
1648931156.0,286047006.4,N
1648931175.8,286047007.1,N
1648931195.7,286047009.3,Y
1648931215.5,286047010.7,P
1648931235.3,286047005.0,N
1648931255.2,286047004.0,N
1648931275.9,286047004.6,N
1648931295.7,286047003.4,N
1648931315.6,286047001.7,N
1648931335.4,286047003.9,N
1648931355.2,286047003.6,N
1648931375.1,286047001.6,N
1648931376.0,286047001.6,N
1648931395.8,286047003.5,N
1648931415.7,286047002.0,N
1648931435.5,286047002.6,N
1648931455.3,286047004.2,N
1648931475.2,286047005.5,N
1648931495.0,286047007.0,Y
1648931495.9,286047007.0,P
1648931515.8,286047003.0,N
1648931535.6,286047004.2,N
1648931555.4,286047006.6,Y
1648931575.3,286046998.1,P
1648931595.1,286046997.1,N
1648931615.8,286046993.7,N
1648931635.7,286046995.9,N
1648931655.5,286046995.1,N
1648931675.4,286046997.0,N
1648931695.2,286046999.2,N
1648931715.0,286046996.5,N
1648931715.9,286046996.5,N
1648931735.8,286046995.7,N
1648931755.6,286046996.8,N
1648931775.4,286046996.1,N
1648931795.3,286046994.3,N
1648931815.1,286046995.5,N
1648931835.9,286046994.9,N
1648931855.7,286047011.9,Y
1648931875.5,286046999.8,P
1648931895.4,286047004.0,N
1648931915.2,286047003.1,N
1648931935.0,286047001.3,N
1648931935.9,286047001.3,N
1648931955.8,286047000.6,N
1648931975.6,286046996.5,N
1648931995.5,286046995.1,N
1648932015.3,286046997.9,N
1648932035.1,286046996.9,N
1648932055.9,286046998.2,N
1648932075.7,286047005.2,N
1648932095.5,286047004.1,N
1648932115.4,286047001.4,N
1648932135.2,286047002.8,N
1648932155.1,286046998.1,N
1648932156.0,286046998.1,N
1648932175.8,286046997.2,N
1648932195.6,286046996.6,N
1648932215.5,286047010.6,Y
1648932235.3,286047006.8,P
1648932255.2,286047004.4,N
1648932275.9,286047008.4,N
1648932295.7,286047006.1,N
1648932315.6,286047007.5,N
1648932335.4,286047006.3,N
1648932355.2,286047005.6,N
1648932375.1,286047002.4,N
1648932376.0,286047002.4,N
1648932395.8,286047004.4,N
1648932415.7,286047002.9,N
1648932435.5,286047006.2,N
1648932455.3,286047005.9,N
1648932475.2,286047006.0,N
1648932495.9,286047002.0,N
1648932515.7,286047005.9,N
1648932535.6,286047010.0,Y
1648932555.4,286047001.7,P
1648932575.3,286047000.5,N
1648932595.1,286047000.4,N
1648932596.0,286047000.4,N
1648932615.8,286046999.6,N
1648932635.7,286046998.4,N
1648932655.5,286046997.0,N
1648932675.3,286047006.8,Y
1648932695.2,286047010.3,P
1648932715.0,286047008.5,N
1648932715.9,286047008.5,N
1648932735.8,286047006.9,N
1648932755.6,286047004.8,N
1648932775.4,286047002.2,N
1648932795.3,286047000.8,N
1648932815.1,286046997.1,N
1648932835.9,286046999.3,N
1648932855.7,286046997.4,N
1648932875.5,286046997.2,N
1648932895.4,286046999.6,N
1648932915.2,286046999.3,N
1648932935.0,286046999.0,N
1648932935.9,286046999.0,N
1648932955.8,286046999.1,N
1648932975.6,286046997.6,N
1648932995.5,286046997.7,N
1648933015.3,286047000.6,N
1648933035.1,286046999.5,N
1648933055.9,286046998.2,N
1648933075.7,286047000.8,N
1648933095.5,286047003.1,N
1648933115.4,286047007.6,N
1648933135.2,286047005.8,N
1648933155.1,286047007.3,N
1648933156.0,286047007.3,N
1648933175.8,286047002.0,N
1648933195.6,286046998.4,N
